Satellite: HORYU-2 Catalog number: 38340 Epoch time: 14120.86078151 Element set: 839 Inclination: 098.2563 deg RA of node: 077.2725 deg Eccentricity: 0.0012181 Arg of perigee: 332.1607 deg Mean anomaly: 027.8947 deg Mean motion: 14.72388783 rev/day Decay rate: 2.136e-05 rev/day^2 Epoch rev: 10483 Checksum: 307
Satellite: RS-40 Catalog number: 38735 Epoch time: 14121.26232317 Element set: 556 Inclination: 082.4737 deg RA of node: 316.8069 deg Eccentricity: 0.0017162 Arg of perigee: 359.9475 deg Mean anomaly: 000.1613 deg Mean motion: 12.42558835 rev/day Decay rate: 2.4e-07 rev/day^2 Epoch rev: 7975 Checksum: 303
Satellite: PROITERES Catalog number: 38756 Epoch time: 14121.78868403 Element set: 790 Inclination: 098.2279 deg RA of node: 209.3251 deg Eccentricity: 0.0013257 Arg of perigee: 166.6733 deg Mean anomaly: 193.4827 deg Mean motion: 14.74898069 rev/day Decay rate: 7.40e-06 rev/day^2 Epoch rev: 8834 Checksum: 340
Satellite: BEESAT-3 Catalog number: 39134 Epoch time: 14121.80450096 Element set: 575 Inclination: 064.8788 deg RA of node: 285.3107 deg Eccentricity: 0.0022926 Arg of perigee: 314.4237 deg Mean anomaly: 045.5005 deg Mean motion: 15.04796684 rev/day Decay rate: 6.520e-05 rev/day^2 Epoch rev: 5668 Checksum: 309
Satellite: BEESAT-2 Catalog number: 39136 Epoch time: 14121.78401229 Element set: 559 Inclination: 064.8768 deg RA of node: 285.7072 deg Eccentricity: 0.0023532 Arg of perigee: 315.7585 deg Mean anomaly: 044.2156 deg Mean motion: 15.04245458 rev/day Decay rate: 5.955e-05 rev/day^2 Epoch rev: 5667 Checksum: 321
Satellite: LO-75 Catalog number: 39382 Epoch time: 14121.05343816 Element set: 212 Inclination: 040.4969 deg RA of node: 017.7328 deg Eccentricity: 0.0017708 Arg of perigee: 263.3800 deg Mean anomaly: 096.4635 deg Mean motion: 15.38957446 rev/day Decay rate: 6.4747e-04 rev/day^2 Epoch rev: 2478 Checksum: 328
Satellite: ZACUBE-1 Catalog number: 39417 Epoch time: 14120.78277068 Element set: 284 Inclination: 097.7782 deg RA of node: 193.0289 deg Eccentricity: 0.0063278 Arg of perigee: 038.2549 deg Mean anomaly: 322.3116 deg Mean motion: 14.77974636 rev/day Decay rate: 1.841e-05 rev/day^2 Epoch rev: 2369 Checksum: 336
Satellite: TRITON-1 Catalog number: 39427 Epoch time: 14121.13916361 Element set: 138 Inclination: 097.7657 deg RA of node: 190.1447 deg Eccentricity: 0.0119375 Arg of perigee: 040.9487 deg Mean anomaly: 320.0544 deg Mean motion: 14.65294717 rev/day Decay rate: 2.055e-05 rev/day^2 Epoch rev: 2350 Checksum: 297
Satellite: DELFIN3XT Catalog number: 39428 Epoch time: 14121.26760169 Element set: 142 Inclination: 097.7650 deg RA of node: 189.6621 deg Eccentricity: 0.0129985 Arg of perigee: 041.9354 deg Mean anomaly: 319.1575 deg Mean motion: 14.63139558 rev/day Decay rate: 3.306e-05 rev/day^2 Epoch rev: 2347 Checksum: 321
Satellite: GOMX-1 Catalog number: 39430 Epoch time: 14121.73892185 Element set: 433 Inclination: 097.7590 deg RA of node: 188.5684 deg Eccentricity: 0.0157483 Arg of perigee: 044.0327 deg Mean anomaly: 317.3165 deg Mean motion: 14.56736463 rev/day Decay rate: 1.789e-05 rev/day^2 Epoch rev: 2345 Checksum: 326
Satellite: MO-76 Catalog number: 39436 Epoch time: 14121.75370802 Element set: 189 Inclination: 097.7792 deg RA of node: 196.1090 deg Eccentricity: 0.0027153 Arg of perigee: 049.3383 deg Mean anomaly: 310.9981 deg Mean motion: 14.89156185 rev/day Decay rate: 1.6344e-04 rev/day^2 Epoch rev: 2396 Checksum: 337
Satellite: LO-74 Catalog number: 39440 Epoch time: 14121.19251828 Element set: 136 Inclination: 097.7726 deg RA of node: 192.1436 deg Eccentricity: 0.0085545 Arg of perigee: 037.6715 deg Mean anomaly: 323.0342 deg Mean motion: 14.72939863 rev/day Decay rate: 2.263e-05 rev/day^2 Epoch rev: 2366 Checksum: 314
Satellite: PUCPSAT-1 Catalog number: 39442 Epoch time: 14121.16665502 Element set: 134 Inclination: 097.7830 deg RA of node: 195.3579 deg Eccentricity: 0.0036084 Arg of perigee: 041.9560 deg Mean anomaly: 318.4234 deg Mean motion: 14.85881763 rev/day Decay rate: 3.461e-05 rev/day^2 Epoch rev: 2264 Checksum: 303
Satellite: LITSAT-1 Catalog number: 39568 Epoch time: 14121.83567690 Element set: 144 Inclination: 051.6387 deg RA of node: 323.4030 deg Eccentricity: 0.0011129 Arg of perigee: 235.0032 deg Mean anomaly: 220.3251 deg Mean motion: 15.80509268 rev/day Decay rate: 4.22900e-03 rev/day^2 Epoch rev: 976 Checksum: 273
Satellite: LITUANSAT Catalog number: 39569 Epoch time: 14121.69936281 Element set: 194 Inclination: 051.6468 deg RA of node: 326.3853 deg Eccentricity: 0.0006365 Arg of perigee: 191.9877 deg Mean anomaly: 205.3079 deg Mean motion: 15.66489450 rev/day Decay rate: 1.23070e-03 rev/day^2 Epoch rev: 971 Checksum: 331
Satellite: SHINAISAT Catalog number: 39572 Epoch time: 14121.69640981 Element set: 93 Inclination: 065.0164 deg RA of node: 203.8938 deg Eccentricity: 0.0014799 Arg of perigee: 290.7448 deg Mean anomaly: 069.2143 deg Mean motion: 15.65510969 rev/day Decay rate: 4.4723e-04 rev/day^2 Epoch rev: 982 Checksum: 327
Satellite: OPUSAT Catalog number: 39575 Epoch time: 14121.42271067 Element set: 111 Inclination: 065.0074 deg RA of node: 203.1231 deg Eccentricity: 0.0015052 Arg of perigee: 317.8112 deg Mean anomaly: 042.1733 deg Mean motion: 15.75159693 rev/day Decay rate: 1.22963e-03 rev/day^2 Epoch rev: 981 Checksum: 258
Satellite: TEIKYOSAT Catalog number: 39576 Epoch time: 14121.69067243 Element set: 98 Inclination: 065.0139 deg RA of node: 203.3931 deg Eccentricity: 0.0012100 Arg of perigee: 307.3882 deg Mean anomaly: 052.6187 deg Mean motion: 15.67975310 rev/day Decay rate: 5.5105e-04 rev/day^2 Epoch rev: 983 Checksum: 289
Satellite: IFT-1 Catalog number: 39577 Epoch time: 14121.41460648 Element set: 102 Inclination: 065.0092 deg RA of node: 203.6214 deg Eccentricity: 0.0010629 Arg of perigee: 309.5285 deg Mean anomaly: 050.4940 deg Mean motion: 15.71958627 rev/day Decay rate: 8.5754e-04 rev/day^2 Epoch rev: 980 Checksum: 294
Satellite: CO-77 Catalog number: 39578 Epoch time: 14121.84166263 Element set: 122 Inclination: 065.0002 deg RA of node: 199.8697 deg Eccentricity: 0.0016479 Arg of perigee: 313.4971 deg Mean anomaly: 046.4826 deg Mean motion: 15.92022384 rev/day Decay rate: 5.30180e-03 rev/day^2 Epoch rev: 990 Checksum: 321
Satellite: STARS-II Catalog number: 39579 Epoch time: 14116.06110564 Element set: 132 Inclination: 064.9886 deg RA of node: 219.0071 deg Eccentricity: 0.0013010 Arg of perigee: 293.8065 deg Mean anomaly: 069.6132 deg Mean motion: 16.44611049 rev/day Decay rate: 2.0186783e-01 rev/day^2 Epoch rev: 902 Checksum: 288
Satellite: KICKSAT Catalog number: 39685 Epoch time: 14121.87361648 Element set: 35 Inclination: 051.6505 deg RA of node: 325.3877 deg Eccentricity: 0.0020560 Arg of perigee: 308.0645 deg Mean anomaly: 051.8485 deg Mean motion: 15.97061992 rev/day Decay rate: 6.41982e-03 rev/day^2 Epoch rev: 207 Checksum: 312
/EX